Regional Weather Roundup
Issued by NWS

Home | Current Version | Previous Version | Text Only | Print | Product List | Glossary On
Versions: 1 2 3 4 5 6 7 8 9 10 11 12 13 14 15 16 17 18 19 20 21 22 23 24 25 26 27 28 29 30 31 32 33 34 35 36 37 38 39 40 41 42 43 44 45 46 47 48 49 50
000
ASUS44 KLIX 022212
RWRLA
LOUISIANA WEATHER ROUNDUP
NATIONAL WEATHER SERVICE NEW ORLEANS LA
500 PM CDT WED SEP 02 2015

NOTE: "FAIR" INDICATES FEW OR NO CLOUDS BELOW 12,000 FEET WITH NO
      SIGNIFICANT WEATHER AND/OR OBSTRUCTIONS TO VISIBILITY.
      SKY/WX - SKY CONDITION AND SIGNIFICANT WEATHER.
      TMP - AIR TEMPERATURE.    DP   - DEWPOINT TEMPERATURE.
      RH  - RELATIVE HUMIDITY.  PRES - PRESSURE.
      HX  - HEAT INDEX.         WCI  - WIND CHILL INDEX.

*  THESE STATIONS ARE NOT NWS OR FAA STATIONS AND ARE NOT UNDER
   NWS QUALITY CONTROL.

LAZ040-048-061>063-065-066-069-022300-
SOUTHEAST LOUISIANA

CITY           SKY/WX    TMP DP  RH WIND       PRES   REMARKS
N.O. AUDUBON     N/A     81  73  74 MISG        N/A
N.O. INTL ARPT CLOUDY    81  71  71 S7        30.01F
N.O. LAKEFRONT CLOUDY    82  71  69 S7        30.01F
N.O. DOWNTOWN* MOCLDY    82  72  69 SE6       30.02F
RESERVE*       FAIR      84  71  65 S3        30.01F
SLIDELL        CLOUDY    85  74  69 S7        30.00F
BATON ROUGE    CLOUDY    82  72  71 S7        30.00F
BOOTHVILLE     LGT RAIN  77  74  90 W3        30.02F
BELLE CHASSE   CLOUDY    80  74  81 CALM      30.00F
BOGALUSA*      NOT AVBL
GALLIANO*      CLOUDY    79  76  90 CALM      30.00F
NEW ROADS*     MOCLDY    82  68  62 SE6       30.00F
GONZALES*      FAIR      82  72  70 SE6       29.99F
HAMMOND*       CLOUDY    82  70  65 CALM      30.03F
HOUMA*         NOT AVBL
PORT FOURCHON* CLEAR     79  73  83 SE6       30.01F

$$

LAZ041-044-053-054-022300-
SOUTHWEST LOUISIANA

CITY           SKY/WX    TMP DP  RH WIND       PRES   REMARKS
LAKE CHARLES   LGT RAIN  78  75  90 E9        29.98F
LAFAYETTE      CLOUDY    80  71  74 CALM      29.99F
PATTERSON      CLOUDY    81  72  74 SE5       30.01F
SALT POINT       N/A     79  76  90 CALM      29.98F
NEW IBERIA     CLOUDY    80  72  76 SE6       30.00F
CHENAULT AIRPK PTSUNNY   77  75  94 SE9       29.99F

$$

LAZ027-028-022300-
CENTRAL LOUISIANA

CITY           SKY/WX    TMP DP  RH WIND       PRES   REMARKS
FORT POLK      NOT AVBL
ALEXANDRIA INT MOSUNNY   89  64  43 S7        29.96F
ALEXANDRIA     PTSUNNY   93  66  40 VRB6      29.97F HX  96

$$

LAZ001-002-022300-
NORTHWEST LOUISIANA

CITY           SKY/WX    TMP DP  RH WIND       PRES   REMARKS
SHREVEPORT     PTSUNNY   92  64  39 E8        29.95F
BARKSDALE AFB  NOT AVBL
DTN SHREVEPORT MOSUNNY   91  67  44 N3        29.96F

$$

LAZ014-016-022300-
NORTHEAST LOUISIANA

CITY           SKY/WX    TMP DP  RH WIND       PRES   REMARKS
MONROE         PTSUNNY   88  69  53 NE10      29.99F
TALLULAH       MOSUNNY   89  71  55 E5        29.99F HX  95

$$




USA.gov is the U.S. government's official web portal to all federal, state and local government web resources and services.